Location: Pardubice
(50.0330°N, 15.7830°E)
Time: 09:56:48
(UTC+02:00)

Courier 1B Rocket - All Passes

Search period start: 07 October 2024 00:00
Search period end: 17 October 2024 00:00
Orbit: 920 x 1201 km, 28.2° (Epoch: 06 October)

Date Brightness Start Highest point End Pass type
(mag) Time Alt. Az. Time Alt. Az. Time Alt. Az.
07 Oct - 09:03:14 10° S 09:04:25 10° S 09:05:34 10° SSE daylight
08 Oct - 09:54:37 10° SSW 09:55:36 10° S 09:56:35 10° S daylight
09 Oct - 08:52:50 10° SSW 08:54:51 11° S 08:56:50 10° SSE daylight
10 Oct - 07:51:50 10° SSW 07:54:04 11° S 07:56:15 10° SSE daylight
11 Oct - 06:51:27 10° S 06:53:15 11° S 06:55:03 10° SSE daylight
11 Oct - 08:43:11 10° SSW 08:45:17 11° S 08:47:19 10° S daylight
12 Oct - 07:41:44 10° SSW 07:44:29 12° S 07:47:10 10° SSE daylight
13 Oct - 06:40:47 10° SSW 06:43:39 12° S 06:46:27 10° SSE visible
13 Oct - 08:34:18 10° SSW 08:35:40 11° SSW 08:37:00 10° S daylight
14 Oct - 05:40:21 10° S 05:42:47 12° S 05:45:13 10° SSE visible
14 Oct - 07:32:08 10° SSW 07:34:52 12° S 07:37:32 10° SSE daylight
15 Oct - 04:41:07 10° S 04:41:56 10° SSE 04:42:46 10° SSE visible
15 Oct - 06:30:48 10° SSW 06:34:01 13° S 06:37:10 10° SSE visible
16 Oct - 05:29:56 10° SSW 05:33:09 13° S 05:36:20 10° SSE visible
16 Oct - 07:23:06 10° SSW 07:25:13 11° SSW 07:27:18 10° S daylight
